一网星座-0302星 (ONEWEB-0302 )

导读

ONEWEB-0302是一颗由英国发射的低轨通信卫星,隶属于OneWeb星座系统,于2021年8月21日发射升空。该卫星旨在推动全球宽带互联网覆盖,为偏远地区、空中及海上用户提供高速互联服务,是OneWeb构建全球卫星通信网络的重要组成部分,助力缩小全球数字鸿沟。

基本信息
目录编号:
49091
目录名称:
ONEWEB-0302
国际标识:
2021-075S
轨道中心:
EARTH
卫星名称:
一网星座-0302星
卫星全名:
一网星座-0302星 (ONEWEB-0302 )
卫星状态:
在轨 (已飞行1756 天)
发射日期:
2021-08-21 UTC
国别 :
英国 (GB)
星等 :
--
轨道信息
数据来源 国际轨道数据
星历时间: 2026-06-12T14:31:18+0800
14小时前
查看轨道信息
半长轴: 7591.857km
偏心率: 0.0001883
轨道倾角: 87.895°
近地点辐角 99.906°
升交点赤经 351.644°
平近点角 260.228°
近地点: 1212.29km
远地点: 1215.15km
周期: 109.719分钟
每日圈数: 13.124439
详细信息
平衡模式:
三轴稳定
覆盖范围:
全球
运营商:
一网卫星公司
运营商所在国:
英国
制造商(研发单位):
一网卫星公司
制造商所在国:
英国
使用方式:
暂无
卫星简介
OneWeb卫星网络由648颗重约125公斤的微型卫星组成,运行在1200公里的轨道上。 每颗卫星都能够提供至少每秒8千兆位的吞吐量,以使用其高吞吐量的Ku频段有效载荷为家庭和移动平台提供互联网接入。该卫星仍在工作。
2D轨道图
3D轨道图
轨道高度分析图
轨道倾角分析图
轨道综合分析图
查看轨道综合分析图